Wind_Speed
32 32 31 30 29 28 29 29 28 28 28 28 28 27 28 28 28 28 28 28 27 27 27 27 27 27 28 28 28 28 28 28 28 28 28 29 29 29 30 30 30 30 31 31
34 32 30 31 30 29 29 29 28 28 29 29 29 28 28 29 29 29 29 29 28 29 29 28 29 29 29 29 29 29 29 29 29 29 30 30 30 30 31 31 32 32 32 33
34 32 31 31 30 30 30 29 29 29 29 30 30 28 28 28 29 29 30 30 30 30 30 30 30 30 30 30 30 30 30 30 30 31 31 31 32 32 32 32 33 33 34 34
35 34 32 32 31 30 30 29 29 30 30 29 31 30 26 28 28 29 30 30 30 31 31 31 30 31 30 30 31 31 31 31 31 32 32 33 33 33 33 34 34 35 35 35
35 34 33 32 32 31 30 30 30 31 31 31 30 32 27 28 28 29 30 30 31 31 31 31 31 31 31 31 31 31 32 32 32 33 33 33 34 34 35 35 36 36 36 37
36 35 34 33 32 31 31 31 32 32 33 33 30 32 30 29 28 29 30 30 30 31 31 31 31 31 31 31 31 32 32 32 33 33 34 34 35 35 36 36 37 37 37 38
36 35 34 33 33 32 32 32 32 33 33 34 32 32 31 29 28 29 30 30 30 30 31 31 31 31 31 31 32 32 33 33 34 34 34 35 36 36 37 37 38 38 39 39
38 37 35 34 33 33 33 33 33 34 34 34 33 32 31 30 28 29 30 30 30 30 31 31 32 32 32 32 33 33 34 34 35 35 36 36 37 37 38 38 39 40 40 41
38 38 35 34 33 34 33 32 33 35 35 35 34 33 32 31 29 29 30 30 30 31 31 32 32 32 32 33 33 34 35 35 36 36 37 37 38 39 39 40 40 41 41 43
37 38 37 34 34 34 34 33 33 34 35 36 35 33 33 32 31 30 30 31 31 32 32 32 33 33 33 34 35 35 36 36 37 37 38 38 39 39 40 41 41 42 43 44
38 39 38 35 34 34 34 34 34 35 36 36 36 34 33 33 33 32 32 32 33 33 33 33 34 34 34 35 36 36 37 37 37 38 38 39 39 40 40 41 42 44 45 46
37 38 38 36 35 35 35 33 34 35 35 35 36 35 33 33 33 34 34 35 35 35 35 35 35 35 35 36 37 37 37 37 38 39 39 39 40 40 41 42 43 44 46 47
37 38 38 37 37 36 35 34 34 34 35 36 36 35 33 34 34 35 36 36 36 36 35 35 36 36 36 36 37 37 37 38 39 39 39 40 40 41 42 43 44 45 47 48
37 38 38 37 36 35 34 34 34 35 36 36 35 34 34 35 36 37 37 37 37 37 37 36 37 37 37 37 37 37 38 39 39 39 40 40 41 42 43 44 45 46 47 49
38 38 37 37 36 35 34 34 34 35 35 36 34 34 33 36 38 38 38 38 38 38 37 37 37 37 38 37 38 38 39 39 39 40 41 41 42 43 44 45 46 47 48 50
39 38 38 38 37 37 37 35 34 34 34 35 36 35 34 37 37 38 39 39 38 38 38 38 38 38 38 38 39 39 40 40 41 41 42 43 43 44 45 46 47 48 50 51
39 39 39 38 38 39 38 34 35 35 34 35 36 34 35 37 37 38 39 39 39 39 39 38 38 38 39 39 39 40 41 42 42 43 43 43 44 45 46 47 48 50 51 52
40 40 40 40 39 40 35 33 34 34 34 34 35 35 36 38 37 38 39 39 39 39 39 39 39 39 40 40 41 41 41 42 43 43 44 45 45 46 47 48 49 51 52 53
40 39 40 41 41 39 36 34 33 35 34 33 34 34 36 37 38 38 38 39 39 39 39 40 40 40 41 41 41 41 42 43 44 44 45 45 46 47 48 49 51 52 54 55
41 40 40 40 41 39 35 34 34 35 35 32 34 35 36 37 38 37 37 38 39 39 39 40 41 41 41 41 41 42 43 44 44 45 46 46 48 49 49 50 52 53 55 56
41 40 40 40 40 39 36 35 35 35 34 34 35 36 37 37 37 37 38 39 39 39 40 40 41 41 41 41 42 43 43 44 45 46 47 48 49 49 50 52 53 55 56 58
41 42 42 41 41 37 35 36 36 35 36 36 36 36 36 37 37 37 38 39 39 40 40 41 41 42 42 43 43 44 44 45 46 46 47 48 49 50 52 53 55 56 58 60
41 41 40 41 39 36 35 35 35 36 37 37 37 36 37 37 38 39 39 40 40 41 41 41 42 43 43 44 45 45 46 46 47 48 48 49 50 51 53 55 56 58 60 61
41 39 39 39 37 36 36 36 36 37 38 38 38 38 38 39 39 39 40 40 41 42 42 43 43 43 44 45 45 46 47 48 48 49 49 50 51 53 55 56 58 59 60 62
41 40 39 39 37 37 37 37 38 39 40 40 40 40 40 40 40 40 41 41 42 43 43 44 44 45 45 45 46 47 47 48 49 49 50 51 53 55 56 57 59 60 61 63
40 40 39 38 37 38 38 38 39 40 41 41 41 40 40 40 41 42 42 42 43 43 43 44 45 45 46 46 47 47 48 49 49 50 52 53 55 56 57 59 60 61 63 64
Wind_Direction
244 246 247 251 254 257 260 263 264 267 270 272 274 275 276 279 281 282 283 285 286 287 289 290 289 288 289 290 290 290 289 290 291 291 291 291 292 293 294 294 295 296 296 296
244 246 248 251 253 256 259 261 264 267 271 273 273 275 277 279 281 282 283 284 286 288 289 290 290 289 289 289 289 289 289 288 289 289 290 291 291 292 293 293 293 294 295 296
244 245 248 251 254 256 259 261 264 267 270 273 274 275 278 279 281 282 284 285 287 288 289 290 290 289 289 289 288 288 288 288 288 288 289 290 290 292 292 293 293 294 295 296
244 244 246 250 254 256 258 262 265 267 269 272 277 277 277 280 281 283 285 286 287 289 290 291 291 290 290 289 288 288 288 288 287 288 288 289 290 291 292 293 293 294 295 296
243 244 246 249 252 255 259 262 265 268 270 272 276 280 281 281 282 284 285 286 287 289 291 292 292 291 290 289 288 288 288 288 287 288 288 289 289 290 291 292 293 294 294 295
243 244 247 250 252 256 259 262 265 268 271 273 275 279 283 284 286 286 286 287 289 290 291 292 292 291 291 290 289 288 288 288 288 288 288 289 289 290 291 292 292 293 294 295
243 246 247 249 251 254 258 262 265 268 270 273 277 279 282 286 287 287 288 288 289 290 291 292 292 292 291 290 289 288 288 288 288 288 288 288 289 290 290 291 292 293 293 294
245 246 247 249 252 255 258 261 265 269 273 276 279 280 283 286 287 287 287 288 289 291 292 292 293 292 291 290 289 288 288 288 288 288 288 289 289 290 290 291 292 293 294 294
247 249 249 250 253 256 258 261 265 268 271 274 277 281 283 285 287 287 287 288 289 290 292 293 294 293 292 290 289 289 289 288 289 289 289 289 289 290 291 291 292 292 293 294
244 249 250 250 252 255 258 261 262 265 270 274 277 280 284 287 288 288 288 289 290 291 292 293 293 293 292 291 290 290 290 289 289 289 289 289 290 290 291 291 292 292 293 295
242 247 250 251 252 255 257 260 263 265 268 272 277 279 284 287 289 289 289 289 290 292 294 294 294 293 291 291 291 291 290 290 290 290 290 290 291 291 291 292 292 293 294 295
242 246 249 250 252 255 257 260 263 265 268 271 274 278 283 285 287 289 290 291 293 294 294 294 294 293 292 292 291 291 290 290 290 290 290 290 290 291 291 292 293 293 295 295
240 244 248 251 252 254 258 260 262 265 267 270 274 281 282 283 284 287 289 292 294 295 295 295 294 294 293 292 291 291 291 291 291 291 290 290 290 291 292 292 293 294 295 296
241 244 247 252 257 258 259 260 262 264 267 271 275 279 281 283 284 287 289 291 293 294 294 294 294 294 294 293 292 292 291 292 292 292 291 291 291 291 292 293 294 295 296 297
242 245 247 250 255 258 259 261 263 265 269 272 275 277 279 280 283 287 289 290 292 294 294 295 294 294 294 293 292 292 292 293 292 292 292 292 292 292 293 294 294 295 296 297
242 245 248 250 253 256 258 260 263 265 269 272 274 277 279 279 283 286 289 291 292 293 294 294 294 294 293 292 292 292 292 292 293 293 293 292 293 293 294 295 295 296 297 297
241 244 247 250 251 255 258 263 265 266 269 272 276 278 277 279 283 286 288 290 291 292 293 294 294 294 293 292 292 292 292 293 293 293 293 293 294 294 295 295 296 297 297 298
239 241 245 248 251 254 262 264 266 268 270 273 276 277 278 280 284 286 288 289 292 293 293 293 294 294 294 293 293 293 293 294 294 294 294 295 295 295 295 296 297 297 298 299
238 240 244 248 253 257 260 264 267 270 271 274 277 278 280 282 285 286 288 290 292 292 293 293 293 294 294 294 294 294 294 294 295 295 295 295 295 296 296 297 298 299 300 300
238 241 244 249 254 258 262 265 268 271 273 276 277 279 281 284 286 288 288 289 291 292 293 293 294 294 294 294 294 294 295 295 295 296 296 296 297 297 298 299 300 300 301 302
238 243 246 250 256 259 263 266 269 272 277 276 277 280 282 285 287 288 288 289 290 291 292 293 294 294 294 294 294 295 295 296 296 296 297 298 298 299 299 300 301 301 302 303
241 246 248 251 256 262 265 267 270 274 275 277 279 281 283 284 286 287 289 290 290 292 293 293 294 294 294 294 294 295 295 296 297 297 298 299 299 299 300 301 302 302 303 304
242 246 249 253 259 264 266 268 270 271 274 277 279 281 282 284 286 288 289 290 290 292 293 293 294 294 294 295 295 295 296 296 297 298 298 299 300 300 301 302 303 304 305 305
241 245 250 254 259 264 267 268 270 272 274 276 279 281 282 284 286 288 290 291 291 292 293 293 293 294 294 295 296 296 297 298 298 298 299 300 300 301 302 303 304 305 305 306
242 247 252 256 261 264 265 267 270 271 273 275 278 281 283 285 287 289 291 292 292 293 293 294 294 294 294 295 296 297 298 298 299 299 300 301 302 302 303 304 305 306 306 307
246 248 253 259 263 264 266 267 269 271 273 275 278 280 283 285 286 288 290 291 292 292 293 294 294 295 295 296 297 298 299 299 299 300 301 302 302 303 304 305 306 306 307 308
Height
5806 5810 5812 5815 5817 5818 5819 5820 5821 5822 5822 5823 5824 5825 5825 5824 5824 5824 5824 5823 5823 5822 5822 5821 5819 5818 5817 5815 5814 5812 5811 5809 5807 5806 5804 5802 5800 5798 5796 5794 5792 5790 5788 5785
5800 5804 5807 5808 5810 5812 5813 5815 5816 5817 5817 5818 5819 5819 5819 5819 5819 5818 5818 5818 5817 5816 5815 5815 5814 5812 5811 5809 5808 5806 5805 5803 5801 5800 5798 5796 5794 5792 5790 5788 5785 5783 5781 5778
5793 5799 5801 5802 5805 5806 5808 5809 5811 5811 5811 5811 5812 5814 5814 5814 5813 5813 5812 5812 5811 5810 5809 5809 5807 5806 5805 5803 5801 5800 5799 5797 5795 5793 5791 5789 5788 5785 5783 5781 5779 5776 5773 5771
5786 5791 5794 5796 5799 5800 5802 5804 5804 5805 5805 5806 5806 5806 5810 5808 5807 5807 5806 5806 5805 5804 5803 5802 5801 5800 5798 5797 5795 5793 5792 5790 5788 5786 5784 5783 5781 5779 5776 5774 5771 5769 5766 5763
5780 5785 5787 5790 5793 5794 5796 5797 5798 5799 5798 5800 5800 5799 5803 5802 5802 5801 5800 5800 5799 5797 5796 5795 5794 5793 5791 5790 5788 5786 5785 5783 5781 5779 5777 5775 5773 5771 5769 5766 5764 5761 5758 5755
5774 5778 5781 5784 5787 5788 5790 5791 5792 5792 5792 5793 5795 5794 5795 5796 5796 5795 5794 5793 5792 5791 5790 5788 5787 5786 5784 5783 5781 5779 5777 5776 5774 5772 5770 5768 5765 5763 5761 5758 5755 5753 5750 5746
5767 5770 5774 5777 5779 5782 5783 5785 5786 5785 5785 5787 5788 5788 5790 5790 5789 5788 5787 5786 5785 5784 5783 5781 5780 5779 5777 5775 5773 5772 5770 5768 5766 5764 5762 5759 5757 5755 5752 5750 5747 5744 5741 5738
5760 5763 5768 5770 5773 5775 5776 5778 5780 5780 5780 5780 5781 5781 5784 5783 5783 5782 5781 5779 5778 5777 5776 5775 5773 5771 5770 5768 5766 5764 5762 5760 5758 5756 5753 5751 5749 5746 5744 5741 5738 5735 5732 5728
5753 5757 5761 5764 5766 5768 5770 5771 5773 5773 5773 5773 5774 5776 5776 5776 5776 5775 5774 5773 5772 5771 5769 5768 5766 5764 5762 5760 5758 5756 5754 5752 5749 5747 5745 5742 5740 5737 5735 5732 5729 5726 5722 5719
5746 5749 5752 5756 5758 5760 5763 5765 5766 5765 5766 5766 5768 5769 5769 5768 5769 5768 5767 5766 5765 5764 5762 5760 5758 5756 5754 5752 5750 5748 5746 5743 5741 5738 5736 5733 5731 5728 5725 5722 5719 5716 5712 5708
5738 5741 5744 5748 5751 5754 5756 5758 5758 5759 5759 5760 5760 5764 5762 5762 5761 5760 5759 5758 5757 5756 5754 5752 5750 5748 5746 5744 5741 5739 5737 5734 5732 5729 5727 5724 5721 5718 5716 5712 5709 5705 5702 5698
5730 5733 5736 5740 5743 5745 5747 5750 5751 5752 5753 5753 5753 5758 5756 5755 5753 5752 5751 5750 5749 5748 5746 5744 5742 5740 5737 5735 5732 5730 5728 5725 5723 5720 5717 5715 5712 5709 5706 5702 5699 5695 5691 5687
5722 5725 5729 5731 5736 5738 5740 5742 5743 5744 5745 5745 5746 5750 5749 5747 5746 5745 5744 5742 5741 5739 5738 5735 5733 5731 5728 5726 5724 5721 5719 5716 5714 5711 5708 5705 5702 5699 5695 5692 5688 5684 5680 5676
5714 5717 5722 5725 5727 5730 5732 5734 5735 5736 5736 5738 5740 5742 5741 5739 5738 5737 5736 5734 5732 5731 5729 5727 5724 5722 5719 5717 5714 5712 5709 5707 5704 5701 5698 5695 5692 5688 5685 5681 5677 5673 5669 5664
5706 5710 5714 5717 5719 5721 5724 5726 5727 5728 5730 5730 5733 5733 5734 5731 5729 5728 5727 5725 5724 5722 5720 5718 5715 5713 5710 5708 5705 5702 5700 5697 5694 5691 5688 5685 5681 5678 5674 5670 5666 5662 5657 5652
5698 5702 5706 5709 5711 5713 5714 5717 5719 5720 5722 5722 5723 5725 5725 5722 5721 5720 5718 5717 5715 5713 5711 5709 5706 5704 5701 5698 5696 5693 5690 5687 5684 5681 5678 5674 5670 5667 5663 5659 5654 5650 5645 5640
5690 5695 5698 5701 5703 5703 5706 5711 5712 5713 5714 5714 5714 5717 5715 5714 5713 5712 5710 5708 5706 5704 5702 5699 5697 5694 5691 5688 5686 5683 5680 5677 5674 5670 5667 5663 5659 5655 5651 5647 5642 5638 5632 5627
5681 5685 5688 5691 5694 5694 5703 5704 5704 5704 5706 5706 5706 5707 5706 5705 5704 5703 5701 5698 5697 5695 5692 5689 5687 5684 5681 5678 5675 5672 5669 5666 5663 5659 5656 5652 5648 5644 5639 5635 5630 5625 5619 5614
5673 5676 5679 5682 5683 5687 5693 5695 5696 5696 5697 5698 5697 5697 5696 5695 5694 5694 5692 5689 5687 5685 5682 5680 5677 5674 5671 5668 5665 5662 5659 5656 5652 5649 5645 5641 5636 5632 5627 5623 5617 5612 5606 5600
5665 5668 5672 5674 5675 5678 5686 5687 5687 5687 5688 5690 5688 5688 5687 5686 5685 5686 5682 5680 5677 5675 5672 5670 5667 5664 5661 5658 5655 5652 5648 5645 5641 5637 5633 5629 5624 5620 5615 5610 5604 5598 5592 5586
5656 5659 5662 5665 5666 5671 5677 5678 5678 5679 5682 5681 5679 5678 5678 5677 5676 5675 5672 5670 5668 5665 5663 5660 5657 5654 5651 5647 5644 5641 5637 5634 5630 5626 5621 5617 5612 5607 5602 5597 5591 5585 5578 5572
5647 5651 5654 5656 5658 5666 5669 5669 5670 5671 5671 5670 5669 5669 5668 5667 5666 5664 5662 5660 5658 5655 5653 5649 5647 5643 5640 5637 5633 5630 5626 5622 5618 5614 5609 5605 5599 5594 5589 5583 5577 5570 5563 5556
5638 5644 5647 5650 5655 5658 5659 5660 5660 5660 5661 5660 5659 5659 5658 5657 5656 5654 5652 5650 5648 5645 5642 5639 5636 5633 5629 5626 5622 5619 5615 5610 5606 5602 5597 5592 5587 5581 5575 5569 5563 5556 5548 5540
5631 5635 5638 5641 5645 5648 5649 5649 5650 5650 5650 5650 5650 5649 5648 5647 5646 5644 5642 5640 5637 5634 5631 5628 5625 5622 5618 5614 5611 5607 5603 5598 5594 5589 5584 5579 5573 5568 5562 5555 5548 5540 5533 5524
5623 5625 5628 5631 5636 5637 5639 5640 5640 5640 5640 5640 5640 5639 5638 5637 5635 5633 5631 5629 5626 5623 5620 5617 5614 5610 5607 5603 5599 5595 5591 5586 5581 5576 5571 5566 5560 5554 5548 5541 5533 5525 5517 5508
5614 5617 5620 5624 5627 5627 5629 5630 5629 5629 5630 5630 5629 5629 5627 5626 5625 5623 5620 5618 5615 5612 5609 5606 5602 5599 5595 5591 5587 5583 5578 5573 5569 5563 5558 5552 5546 5540 5533 5527 5520 5511 5502 5493